| time (UTC) | temp F | wind direction | speed knots | gust knots | rain 1hr in | rain 24hr in | rain mn in | humidity % | barometer mb |
| 20260503224825 | 77 | 137 | 3.5 | 9.6 | 0.00 | 0.00 | 0.00 | 63 | 1017.4 |
| 20260503224328 | 77 | 152 | 5.2 | 11.3 | 0.00 | 0.00 | 0.00 | 63 | 1017.4 |
| 20260503223859 | 77 | 150 | 3.5 | 11.3 | 0.00 | 0.00 | 0.00 | 63 | 1017.5 |
| 20260503223345 | 78 | 128 | 2.6 | 9.6 | 0.00 | 0.00 | 0.00 | 64 | 1017.5 |
| 20260503222829 | 78 | 144 | 2.6 | 7.8 | 0.00 | 0.00 | 0.00 | 64 | 1017.4 |
| 20260503222333 | 78 | 136 | 2.6 | 7.8 | 0.00 | 0.00 | 0.00 | 65 | 1017.6 |
| 20260503221821 | 78 | 146 | 3.5 | 8.7 | 0.00 | 0.00 | 0.00 | 65 | 1017.7 |
| 20260503221349 | 78 | 121 | 2.6 | 8.7 | 0.00 | 0.00 | 0.00 | 66 | 1017.6 |
| 20260503220835 | 78 | 130 | 2.6 | 10.4 | 0.00 | 0.00 | 0.00 | 66 | 1017.6 |
| 20260503220343 | 78 | 127 | 5.2 | 10.4 | 0.00 | 0.00 | 0.00 | 66 | 1017.8 |
| 20260503215828 | 78 | 169 | 2.6 | 10.4 | 0.00 | 0.00 | 0.00 | 66 | 1017.9 |
| 20260503215353 | 78 | 193 | 5.2 | 10.4 | 0.00 | 0.00 | 0.00 | 66 | 1018.0 |
| 20260503214839 | 78 | 197 | 4.3 | 8.7 | 0.00 | 0.00 | 0.00 | 67 | 1018.1 |
| 20260503214330 | 78 | 178 | 4.3 | 8.7 | 0.00 | 0.00 | 0.00 | 67 | 1018.2 |
| 20260503213833 | 78 | 198 | 4.3 | 9.6 | 0.00 | 0.00 | 0.00 | 67 | 1018.2 |
| 20260503213321 | 78 | 111 | 4.3 | 9.6 | 0.00 | 0.00 | 0.00 | 68 | 1018.2 |
| 20260503212830 | 78 | 192 | 5.2 | 10.4 | 0.00 | 0.00 | 0.00 | 68 | 1018.2 |
| 20260503212335 | 78 | 250 | 3.5 | 10.4 | 0.00 | 0.00 | 0.00 | 68 | 1018.3 |
| 20260503211820 | 78 | 150 | 2.6 | 8.7 | 0.00 | 0.00 | 0.00 | 68 | 1018.4 |
| 20260503211327 | 78 | 116 | 4.3 | 7.8 | 0.00 | 0.00 | 0.00 | 68 | 1018.5 |
| 20260503210832 | 78 | 159 | 4.3 | 10.4 | 0.00 | 0.00 | 0.00 | 69 | 1018.7 |
| 20260503210337 | 78 | 212 | 6.1 | 10.4 | 0.00 | 0.00 | 0.00 | 70 | 1018.8 |
| 20260503205823 | 78 | 186 | 3.5 | 8.7 | 0.00 | 0.00 | 0.00 | 70 | 1018.9 |
| 20260503205324 | 78 | 136 | 2.6 | 9.6 | 0.00 | 0.00 | 0.00 | 70 | 1018.9 |
| 20260503204833 | 78 | 150 | 4.3 | 12.2 | 0.00 | 0.00 | 0.00 | 71 | 1019.1 |
| 20260503204317 | 78 | 140 | 7.0 | 12.2 | 0.00 | 0.00 | 0.00 | 71 | 1019.0 |
| 20260503203824 | 78 | 187 | 4.3 | 8.7 | 0.00 | 0.00 | 0.00 | 71 | 1019.1 |
| 20260503203330 | 78 | 254 | 5.2 | 7.8 | 0.00 | 0.00 | 0.00 | 72 | 1019.2 |
| 20260503202833 | 78 | 261 | 1.7 | 7.8 | 0.00 | 0.00 | 0.00 | 72 | 1019.3 |
| 20260503202337 | 78 | 192 | 3.5 | 11.3 | 0.00 | 0.00 | 0.00 | 72 | 1019.5 |
| 20260503201848 | 78 | 161 | 7.0 | 11.3 | 0.00 | 0.00 | 0.00 | 73 | 1019.6 |
| 20260503201330 | 78 | 164 | 4.3 | 7.0 | 0.00 | 0.00 | 0.00 | 73 | 1019.6 |
| 20260503200837 | 78 | 147 | 3.5 | 7.8 | 0.00 | 0.00 | 0.00 | 74 | 1019.7 |
| 20260503200322 | 77 | 229 | 1.7 | 5.2 | 0.00 | 0.00 | 0.00 | 74 | 1019.7 |
| 20260503195829 | 78 | 229 | 1.7 | 9.6 | 0.00 | 0.00 | 0.00 | 74 | 1019.8 |
| 20260503195331 | 77 | 165 | 4.3 | 9.6 | 0.00 | 0.00 | 0.00 | 75 | 1019.9 |
| 20260503194837 | 77 | 171 | 4.3 | 8.7 | 0.00 | 0.00 | 0.00 | 75 | 1020.0 |
| 20260503194322 | 78 | 142 | 3.5 | 8.7 | 0.00 | 0.00 | 0.00 | 75 | 1020.1 |
| 20260503193824 | 77 | 247 | 2.6 | 10.4 | 0.00 | 0.00 | 0.00 | 76 | 1020.2 |
| 20260503193323 | 77 | 232 | 7.8 | 10.4 | 0.00 | 0.00 | 0.00 | 76 | 1020.2 |
| 20260503192839 | 76 | 219 | 4.3 | 7.8 | 0.00 | 0.00 | 0.00 | 76 | 1020.3 |
| 20260503192344 | 76 | 120 | 2.6 | 6.1 | 0.00 | 0.00 | 0.00 | 77 | 1020.3 |
| 20260503191830 | 77 | 246 | 2.6 | 10.4 | 0.00 | 0.00 | 0.00 | 77 | 1020.5 |
| 20260503191336 | 77 | 238 | 7.0 | 10.4 | 0.00 | 0.00 | 0.00 | 77 | 1020.5 |
| 20260503190844 | 77 | 256 | 3.5 | 8.7 | 0.00 | 0.00 | 0.00 | 78 | 1020.6 |
| 20260503190326 | 76 | 126 | 1.7 | 6.1 | 0.00 | 0.00 | 0.00 | 78 | 1020.7 |
| 20260503185831 | 77 | 137 | 2.6 | 8.7 | 0.00 | 0.00 | 0.00 | 79 | 1020.7 |
| 20260503185335 | 77 | 200 | 5.2 | 8.7 | 0.00 | 0.00 | 0.00 | 79 | 1020.8 |
| 20260503184820 | 76 | 158 | 1.7 | 7.8 | 0.00 | 0.00 | 0.00 | 79 | 1020.8 |
| 20260503184328 | 76 | 268 | 4.3 | 12.2 | 0.00 | 0.00 | 0.00 | 79 | 1020.9 |
| 20260503183835 | 76 | 227 | 5.2 | 12.2 | 0.00 | 0.00 | 0.00 | 80 | 1021.0 |
| 20260503183321 | 76 | 265 | 4.3 | 9.6 | 0.00 | 0.00 | 0.00 | 80 | 1021.0 |
| 20260503182828 | 76 | 212 | 6.1 | 9.6 | 0.00 | 0.00 | 0.00 | 81 | 1021.1 |
| 20260503182329 | 75 | 236 | 5.2 | 10.4 | 0.00 | 0.00 | 0.00 | 81 | 1021.2 |
| 20260503181836 | 75 | 184 | 4.3 | 8.7 | 0.00 | 0.00 | 0.00 | 81 | 1021.3 |
| 20260503181349 | 75 | 268 | 5.2 | 8.7 | 0.00 | 0.00 | 0.00 | 82 | 1021.3 |
| 20260503180826 | 75 | 223 | 5.2 | 9.6 | 0.00 | 0.00 | 0.00 | 82 | 1021.4 |
| 20260503180333 | 75 | 215 | 5.2 | 9.6 | 0.00 | 0.00 | 0.00 | 82 | 1021.5 |
| 20260503175820 | 75 | 184 | 4.3 | 8.7 | 0.00 | 0.00 | 0.00 | 82 | 1021.7 |
| 20260503175323 | 75 | 234 | 4.3 | 8.7 | 0.00 | 0.00 | 0.00 | 83 | 1021.7 |
| 20260503174829 | 75 | 230 | 2.6 | 11.3 | 0.00 | 0.00 | 0.00 | 83 | 1021.8 |
| 20260503174334 | 75 | 216 | 4.3 | 11.3 | 0.00 | 0.00 | 0.00 | 83 | 1022.0 |
| 20260503173838 | 74 | 215 | 4.3 | 9.6 | 0.00 | 0.00 | 0.00 | 84 | 1022.1 |
| 20260503173328 | 74 | 217 | 4.3 | 8.7 | 0.00 | 0.00 | 0.00 | 84 | 1022.2 |
| 20260503172833 | 74 | 232 | 2.6 | 8.7 | 0.00 | 0.00 | 0.00 | 84 | 1022.3 |
| 20260503172317 | 74 | 215 | 5.2 | 10.4 | 0.00 | 0.00 | 0.00 | 84 | 1022.4 |
| 20260503171824 | 74 | 144 | 5.2 | 10.4 | 0.00 | 0.00 | 0.00 | 85 | 1022.4 |
| 20260503171326 | 74 | 229 | 3.5 | 10.4 | 0.00 | 0.00 | 0.00 | 85 | 1022.5 |
| 20260503170859 | 74 | 228 | 4.3 | 10.4 | 0.00 | 0.00 | 0.00 | 85 | 1022.5 |
| 20260503170344 | 74 | 252 | 6.1 | 8.7 | 0.00 | 0.00 | 0.00 | 86 | 1022.6 |
| 20260503150822 | 69 | 238 | 5.2 | 8.7 | 0.00 | 0.00 | 0.00 | 89 | 1022.8 |
| 20260503150327 | 68 | 236 | 2.6 | 7.8 | 0.00 | 0.00 | 0.00 | 89 | 1022.8 |
| 20260503131327 | 57 | 218 | 0.0 | 3.5 | 0.00 | 0.00 | 0.00 | 88 | 1022.3 |
| 20260503130859 | 56 | 218 | 1.7 | 3.5 | 0.00 | 0.00 | 0.00 | 88 | 1022.2 |
| 20260503130344 | 56 | 215 | 0.9 | 1.7 | 0.00 | 0.00 | 0.00 | 87 | 1022.2 |
| 20260503051327 | 56 | 38 | 0.0 | 0.0 | 0.00 | 0.09 | 0.00 | 85 | 1020.9 |
| 20260503050829 | 57 | 38 | 0.0 | 0.0 | 0.00 | 0.09 | 0.00 | 84 | 1020.9 |
| 20260503050330 | 57 | 38 | 0.0 | 1.7 | 0.00 | 0.09 | 0.00 | 84 | 1020.8 |
| 20260503045846 | 57 | 38 | 0.0 | 1.7 | 0.00 | 0.09 | 0.00 | 84 | 1020.8 |
| 20260503045318 | 57 | 38 | 1.7 | 1.7 | 0.00 | 0.12 | 0.09 | 84 | 1020.8 |
| 20260503044849 | 57 | 38 | 1.7 | 1.7 | 0.00 | 0.12 | 0.09 | 84 | 1020.7 |
| 20260503044329 | 58 | 38 | 1.7 | 1.7 | 0.00 | 0.12 | 0.09 | 84 | 1020.8 |
| 20260503043835 | 58 | 38 | 0.9 | 1.7 | 0.00 | 0.12 | 0.09 | 85 | 1020.8 |
| 20260503043320 | 58 | 38 | 1.7 | 2.6 | 0.00 | 0.12 | 0.09 | 85 | 1020.8 |
| 20260503042848 | 58 | 38 | 1.7 | 2.6 | 0.00 | 0.12 | 0.09 | 85 | 1020.8 |
| 20260503042350 | 58 | 38 | 1.7 | 1.7 | 0.00 | 0.12 | 0.09 | 85 | 1020.7 |
| 20260503041833 | 58 | 38 | 1.7 | 1.7 | 0.00 | 0.12 | 0.09 | 85 | 1020.7 |
| 20260503041336 | 58 | 38 | 1.7 | 1.7 | 0.00 | 0.12 | 0.09 | 85 | 1020.7 |
| 20260503040819 | 58 | 38 | 1.7 | 1.7 | 0.00 | 0.12 | 0.09 | 85 | 1020.7 |
| 20260503040330 | 59 | 38 | 0.9 | 1.7 | 0.00 | 0.12 | 0.09 | 85 | 1020.7 |
| 20260503035833 | 59 | 38 | 0.9 | 2.6 | 0.00 | 0.12 | 0.09 | 85 | 1020.6 |
| 20260503034838 | 59 | 38 | 1.7 | 2.6 | 0.00 | 0.15 | 0.09 | 85 | 1020.6 |
| 20260503034348 | 59 | 38 | 1.7 | 2.6 | 0.00 | 0.15 | 0.09 | 85 | 1020.6 |
| 20260503033833 | 59 | 38 | 1.7 | 2.6 | 0.00 | 0.15 | 0.09 | 85 | 1020.6 |
| 20260503033318 | 59 | 38 | 1.7 | 2.6 | 0.00 | 0.15 | 0.09 | 85 | 1020.6 |
| 20260503032839 | 59 | 38 | 1.7 | 2.6 | 0.00 | 0.15 | 0.09 | 85 | 1020.5 |
| 20260503032323 | 59 | 38 | 1.7 | 2.6 | 0.00 | 0.15 | 0.09 | 85 | 1020.5 |
| 20260503031825 | 59 | 39 | 1.7 | 2.6 | 0.00 | 0.15 | 0.09 | 85 | 1020.4 |
| 20260503031359 | 59 | 39 | 0.9 | 1.7 | 0.00 | 0.15 | 0.09 | 85 | 1020.3 |
| 20260503030822 | 59 | 39 | 0.0 | 0.0 | 0.00 | 0.15 | 0.09 | 85 | 1020.3 |
| 20260503030348 | 59 | 39 | 0.0 | 0.0 | 0.00 | 0.15 | 0.09 | 85 | 1020.3 |
| 20260503025839 | 60 | 39 | 0.0 | 0.0 | 0.00 | 0.15 | 0.09 | 85 | 1020.3 |
| 20260503025342 | 60 | 39 | 0.0 | 0.0 | 0.00 | 0.18 | 0.09 | 85 | 1020.2 |
| 20260503024826 | 60 | 40 | 0.0 | 0.0 | 0.00 | 0.18 | 0.09 | 85 | 1020.3 |
| 20260503024328 | 60 | 40 | 0.0 | 0.9 | 0.00 | 0.18 | 0.09 | 85 | 1020.2 |
| 20260503023831 | 60 | 40 | 0.0 | 0.9 | 0.00 | 0.18 | 0.09 | 85 | 1020.2 |
| 20260503023334 | 60 | 40 | 0.0 | 0.9 | 0.00 | 0.18 | 0.09 | 85 | 1020.2 |
| 20260503022907 | 61 | 40 | 0.0 | 0.9 | 0.00 | 0.18 | 0.09 | 85 | 1020.1 |
| 20260503022325 | 61 | 40 | 0.0 | 0.0 | 0.00 | 0.18 | 0.09 | 85 | 1020.0 |
| 20260503021829 | 61 | 40 | 0.0 | 0.0 | 0.00 | 0.18 | 0.09 | 85 | 1020.1 |
| 20260503021353 | 61 | 40 | 0.0 | 0.0 | 0.00 | 0.18 | 0.09 | 85 | 1019.9 |
| 20260503020836 | 62 | 40 | 0.0 | 0.9 | 0.00 | 0.18 | 0.09 | 85 | 1019.8 |
| 20260503020318 | 62 | 40 | 0.0 | 0.9 | 0.00 | 0.18 | 0.09 | 85 | 1019.7 |
| 20260503015830 | 62 | 40 | 0.0 | 0.9 | 0.00 | 0.18 | 0.09 | 85 | 1019.6 |
| 20260503015328 | 63 | 40 | 0.0 | 0.9 | 0.00 | 0.21 | 0.09 | 85 | 1019.6 |
| 20260503014830 | 63 | 40 | 0.0 | 1.7 | 0.00 | 0.21 | 0.09 | 86 | 1019.6 |
| 20260503014335 | 64 | 40 | 0.9 | 2.6 | 0.00 | 0.21 | 0.09 | 85 | 1019.6 |
| 20260503013819 | 64 | 40 | 1.7 | 2.6 | 0.00 | 0.21 | 0.09 | 86 | 1019.6 |
| 20260503013350 | 65 | 338 | 1.7 | 2.6 | 0.00 | 0.21 | 0.09 | 86 | 1019.4 |
| 20260503012832 | 65 | 338 | 1.7 | 3.5 | 0.00 | 0.21 | 0.09 | 86 | 1019.3 |
| 20260503012331 | 65 | 338 | 2.6 | 4.3 | 0.00 | 0.21 | 0.09 | 86 | 1019.3 |
| 20260503011818 | 66 | 338 | 2.6 | 4.3 | 0.00 | 0.21 | 0.09 | 86 | 1019.3 |
| 20260503011409 | 66 | 350 | 2.6 | 3.5 | 0.00 | 0.21 | 0.09 | 86 | 1019.3 |
| 20260503010827 | 67 | 351 | 2.6 | 2.6 | 0.00 | 0.21 | 0.09 | 86 | 1019.2 |
| 20260503010329 | 67 | 351 | 2.6 | 3.5 | 0.00 | 0.21 | 0.09 | 87 | 1019.2 |
| 20260503005834 | 68 | 351 | 1.7 | 3.5 | 0.00 | 0.21 | 0.09 | 87 | 1019.2 |
| 20260503005346 | 68 | 355 | 2.6 | 4.3 | 0.00 | 0.26 | 0.09 | 87 | 1019.1 |
| 20260503004831 | 68 | 355 | 3.5 | 4.3 | 0.00 | 0.26 | 0.09 | 87 | 1019.0 |
| 20260503004333 | 69 | 360 | 2.6 | 4.3 | 0.00 | 0.26 | 0.09 | 87 | 1019.0 |
| 20260503003841 | 69 | 360 | 2.6 | 5.2 | 0.00 | 0.26 | 0.09 | 87 | 1018.9 |
| 20260503003325 | 70 | 347 | 2.6 | 5.2 | 0.00 | 0.26 | 0.09 | 88 | 1018.9 |
| 20260503002830 | 70 | 5 | 2.6 | 4.3 | 0.00 | 0.26 | 0.09 | 88 | 1018.9 |
| 20260503002336 | 70 | 355 | 1.7 | 4.3 | 0.00 | 0.26 | 0.09 | 88 | 1018.9 |
| 20260503001820 | 70 | 355 | 2.6 | 4.3 | 0.00 | 0.26 | 0.09 | 88 | 1018.8 |
| 20260503001348 | 71 | 25 | 2.6 | 8.7 | 0.00 | 0.26 | 0.09 | 89 | 1018.8 |
| 20260503000834 | 71 | 346 | 2.6 | 8.7 | 0.00 | 0.26 | 0.09 | 89 | 1018.8 |
| 20260503000342 | 71 | 9 | 5.2 | 7.8 | 0.00 | 0.26 | 0.09 | 89 | 1018.8 |
| 20260502235824 | 71 | 18 | 4.3 | 10.4 | 0.00 | 0.26 | 0.09 | 89 | 1018.7 |
| 20260502235333 | 72 | 31 | 3.5 | 10.4 | 0.00 | 0.30 | 0.09 | 89 | 1018.7 |
| 20260502234837 | 72 | 319 | 4.3 | 10.4 | 0.00 | 0.30 | 0.09 | 90 | 1018.6 |
| 20260502234323 | 72 | 13 | 5.2 | 10.4 | 0.00 | 0.30 | 0.09 | 90 | 1018.6 |
| 20260502233829 | 72 | 349 | 5.2 | 10.4 | 0.00 | 0.30 | 0.09 | 90 | 1018.7 |
| 20260502233337 | 72 | 329 | 4.3 | 7.8 | 0.00 | 0.30 | 0.09 | 90 | 1018.6 |
| 20260502232844 | 72 | 71 | 4.3 | 8.7 | 0.00 | 0.30 | 0.09 | 91 | 1018.5 |
| 20260502232327 | 72 | 42 | 2.6 | 9.6 | 0.00 | 0.30 | 0.09 | 91 | 1018.5 |
| 20260502231832 | 72 | 9 | 4.3 | 10.4 | 0.00 | 0.30 | 0.09 | 91 | 1018.5 |
| 20260502231318 | 72 | 19 | 6.1 | 12.2 | 0.00 | 0.30 | 0.09 | 91 | 1018.5 |
| 20260502230851 | 72 | 9 | 7.0 | 12.2 | 0.00 | 0.30 | 0.09 | 91 | 1018.6 |
| 20260502230334 | 72 | 24 | 7.0 | 13.0 | 0.00 | 0.30 | 0.09 | 91 | 1018.5 |
| 20260502225842 | 72 | 5 | 7.8 | 13.0 | 0.00 | 0.30 | 0.09 | 91 | 1018.5 |
| 20260502225324 | 72 | 5 | 6.1 | 8.7 | 0.00 | 0.35 | 0.09 | 92 | 1018.6 |